Leuchars, United Kingdom

5:23 PM BST on May 22, 2017 (GMT +0100)
Leuchars Air Base

Weather History for EGQL - October, 2011

Change the Weather History Date:

Friday, October 21, 2011

  Actual Average Record
Temperature  
Mean Temperature 50 °F -  
Max Temperature 57 °F 49 °F 63 °F (2015)
Min Temperature 44 °F 38 °F 32 °F (2003)
Degree Days  
Heating Degree Days 14    
Moisture  
Dew Point 49 °F    
Average Humidity 84    
Maximum Humidity 94    
Minimum Humidity 73    
Precipitation  
Precipitation 0.00 in - - ()
Sea Level Pressure  
Sea Level Pressure 29.85 in    
Wind  
Wind Speed 15 mph ()    
Max Wind Speed 28 mph    
Max Gust Speed -    
Visibility 7.5 miles    
Events Rain    
Averages and records for this station are not official NWS values.
T = Trace of Precipitation, MM = Missing Value Source: Averaged Metar Reports

Daily Weather History Graph

Daily Weather History Graph

Search for Another Location

Airport or City:

Trip Planner

Search our weather history database for the weather conditions in past years. The results will help you decide how hot, cold, wet, or windy it might be!

Date:

Astronomy

Oct. 21, 2011 Rise Set
Actual Time 7:55 AM BST 5:56 PM BST
Civil Twilight 7:16 AM BST 6:34 PM BST
Nautical Twilight 6:32 AM BST 7:18 PM BST
Astronomical Twilight 5:49 AM BST 8:01 PM BST
Moon 12:18 AM BST (10/21) 3:33 PM BST (10/21)
Length of Visible Light 11h 18m
Length of Day
10h 00m
Last Quarter, 36% of the Moon is Illuminated
Oct 21
Last Quarter
Oct 26
New
Nov 2
First Quarter
Nov 10
Full
Nov 18
Last Quarter

Hourly Weather History & Observations

Time (BST) Temp. Dew Point Humidity Pressure Visibility Wind Dir Wind Speed Gust Speed Precip Events Conditions
12:50 AM 49 °F 45 °F 83% 29.96 in 22 mi SW 6.9 mph - -   Partly Cloudy
12:50 AM 48.2 °F 44.6 °F 87% 29.95 in 6.2 mi SW 6.9 mph - N/A   Overcast
1:50 AM 50.0 °F 46.4 °F 87% 29.92 in 6.2 mi WSW 11.5 mph - N/A   Overcast
2:50 AM 50.0 °F 46.4 °F 87% 29.92 in 6.2 mi WSW 12.7 mph - N/A   Overcast
3:50 AM 51 °F 48 °F 87% 29.90 in 12 mi WSW 16.1 mph - - Rain Light Rain
3:50 AM 50.0 °F 48.2 °F 94% 29.89 in 6.2 mi WSW 16.1 mph - N/A Rain Light Rain
4:50 AM 51.8 °F 48.2 °F 88% 29.86 in 6.2 mi WSW 15.0 mph - N/A   Mostly Cloudy
5:50 AM 51.8 °F 48.2 °F 88% 29.86 in 6.2 mi WSW 18.4 mph - N/A   Mostly Cloudy
6:50 AM 52 °F 50 °F 90% 29.85 in 19 mi WSW 20.7 mph - -   Partly Cloudy
6:50 AM 51.8 °F 50.0 °F 94% 29.83 in 6.2 mi WSW 20.7 mph - N/A   Mostly Cloudy
7:50 AM 53.6 °F 51.8 °F 94% 29.83 in 6.2 mi WSW 17.3 mph - N/A   Mostly Cloudy
8:50 AM 53.6 °F 51.8 °F 94% 29.83 in 6.2 mi SW 21.9 mph - N/A   Mostly Cloudy
9:50 AM 55 °F 51 °F 82% 29.85 in 9 mi SW 21.9 mph - - Rain Light Drizzle
10:34 AM 55.4 °F 51.8 °F 88% 29.83 in 6.2 mi SW 23.0 mph - N/A   Mostly Cloudy
11:50 AM 57.2 °F 50.0 °F 77% 29.83 in 6.2 mi WSW 21.9 mph - N/A   Mostly Cloudy
12:50 PM 56 °F 50 °F 73% 29.83 in 9 mi WSW 27.6 mph - - Rain Light Drizzle
12:50 PM 57.2 °F 50.0 °F 77% 29.80 in 6.2 mi WSW 27.6 mph - N/A   Light Drizzle
1:50 PM 57.2 °F 50.0 °F 77% 29.80 in 6.2 mi WSW 21.9 mph - N/A   Mostly Cloudy
2:50 PM 57.2 °F 50.0 °F 77% 29.80 in 6.2 mi WSW 24.2 mph - N/A   Light Drizzle
3:50 PM 55 °F 51 °F 81% 29.82 in 6 mi WSW 23.0 mph - - Rain Light Drizzle
3:50 PM 55.4 °F 50.0 °F 82% 29.80 in 6.2 mi WSW 23.0 mph - N/A   Light Drizzle
5:50 PM 55.4 °F 50.0 °F 82% 29.83 in 6.2 mi SW 20.7 mph - N/A   Overcast
6:50 PM 55 °F 49 °F 75% 29.86 in 16 mi SW 18.4 mph - -   Partly Cloudy
6:50 PM 55.4 °F 50.0 °F 82% 29.86 in 6.2 mi SW 18.4 mph - N/A   Overcast
7:50 PM 53.6 °F 50.0 °F 88% 29.86 in 6.2 mi SSW 23.0 mph - N/A   Overcast
8:50 PM 55.4 °F 50.0 °F 82% 29.86 in 6.2 mi SSW 17.3 mph - N/A   Overcast
9:50 PM 54 °F 50 °F 83% 29.87 in 25 mi SW 18.4 mph - -   Overcast
9:50 PM 53.6 °F 50.0 °F 88% 29.86 in 6.2 mi SW 18.4 mph - N/A   Overcast
11:50 PM 55.4 °F 48.2 °F 77% 29.83 in 6.2 mi SW 15.0 mph - N/A   Mostly Cloudy